Year,Month,Day,Hour,Minute,Value (Times are PST for windspeed in km/hr)
2021,01,11,00,00,5.90
2021,01,11,00,01,6.70
2021,01,11,00,02,6.40
2021,01,11,00,03,6.40
2021,01,11,00,04,5.70
2021,01,11,00,05,6.20
2021,01,11,00,06,6.80
2021,01,11,00,07,6.70
2021,01,11,00,08,6.50
2021,01,11,00,09,8.10
2021,01,11,00,10,10.10
2021,01,11,00,11,11.50
2021,01,11,00,12,11.90
2021,01,11,00,13,13.00
2021,01,11,00,14,12.70
2021,01,11,00,15,12.20
2021,01,11,00,16,11.30
2021,01,11,00,17,9.80
2021,01,11,00,18,10.10
2021,01,11,00,19,10.00
2021,01,11,00,20,8.90
2021,01,11,00,21,8.70
2021,01,11,00,22,9.50
2021,01,11,00,23,10.10
2021,01,11,00,24,10.10
2021,01,11,00,25,9.80
2021,01,11,00,26,9.60
2021,01,11,00,27,9.40
2021,01,11,00,28,10.30
2021,01,11,00,29,10.70
2021,01,11,00,30,9.30
2021,01,11,00,31,9.30
2021,01,11,00,32,9.80
2021,01,11,00,33,10.10
2021,01,11,00,34,9.70
2021,01,11,00,35,9.90
2021,01,11,00,36,10.90
2021,01,11,00,37,11.40
2021,01,11,00,38,11.80
2021,01,11,00,39,12.30
2021,01,11,00,40,12.50
2021,01,11,00,41,12.70
2021,01,11,00,42,12.40
2021,01,11,00,43,11.30
2021,01,11,00,44,10.00
2021,01,11,00,45,10.50
2021,01,11,00,46,10.50
2021,01,11,00,47,10.20
2021,01,11,00,48,10.70
2021,01,11,00,49,10.50
2021,01,11,00,50,10.20
2021,01,11,00,51,10.30
2021,01,11,00,52,11.10
2021,01,11,00,53,12.10
2021,01,11,00,54,12.70
2021,01,11,00,55,12.80
2021,01,11,00,56,13.00
2021,01,11,00,57,13.10
2021,01,11,00,58,13.00
2021,01,11,00,59,12.20
2021,01,11,01,00,12.20
2021,01,11,01,01,10.60
2021,01,11,01,02,10.50
2021,01,11,01,03,9.90
2021,01,11,01,04,10.10
2021,01,11,01,05,10.00
2021,01,11,01,06,9.80
2021,01,11,01,07,9.80
2021,01,11,01,08,9.80
2021,01,11,01,09,10.10
2021,01,11,01,10,10.00
2021,01,11,01,11,10.00
2021,01,11,01,12,10.70
2021,01,11,01,13,10.50
2021,01,11,01,14,10.30
2021,01,11,01,15,10.70
2021,01,11,01,16,10.70
2021,01,11,01,17,11.60
2021,01,11,01,18,11.50
2021,01,11,01,19,10.60
2021,01,11,01,20,9.70
2021,01,11,01,21,9.30
2021,01,11,01,22,9.20
2021,01,11,01,23,10.10
2021,01,11,01,24,10.20
2021,01,11,01,25,10.50
2021,01,11,01,26,10.90
2021,01,11,01,27,10.60
2021,01,11,01,28,10.50
2021,01,11,01,29,10.50
2021,01,11,01,30,10.40
2021,01,11,01,31,10.10
2021,01,11,01,32,10.90
2021,01,11,01,33,10.40
2021,01,11,01,34,9.70
2021,01,11,01,35,9.30
2021,01,11,01,36,9.20
2021,01,11,01,37,8.90
2021,01,11,01,38,8.30
2021,01,11,01,39,8.10
2021,01,11,01,40,8.10
2021,01,11,01,41,8.40
2021,01,11,01,42,8.80
2021,01,11,01,43,8.90
2021,01,11,01,44,8.80
2021,01,11,01,45,8.50
2021,01,11,01,46,8.10
2021,01,11,01,47,7.70
2021,01,11,01,48,8.10
2021,01,11,01,49,8.90
2021,01,11,01,50,10.20
2021,01,11,01,51,10.60
2021,01,11,01,52,8.20
2021,01,11,01,53,7.40
2021,01,11,01,54,7.40
2021,01,11,01,55,6.60
2021,01,11,01,56,5.70
2021,01,11,01,57,5.80
2021,01,11,01,58,5.20
2021,01,11,01,59,3.60
2021,01,11,02,00,3.00
2021,01,11,02,01,3.60
2021,01,11,02,02,3.80
2021,01,11,02,03,4.30
2021,01,11,02,04,4.40
2021,01,11,02,05,4.40
2021,01,11,02,06,4.20
2021,01,11,02,07,4.50
2021,01,11,02,08,4.70
2021,01,11,02,09,5.60
2021,01,11,02,10,5.10
2021,01,11,02,11,4.30
2021,01,11,02,12,3.50
2021,01,11,02,13,5.60
2021,01,11,02,14,6.10
2021,01,11,02,15,6.00
2021,01,11,02,16,5.60
2021,01,11,02,17,4.80
2021,01,11,02,18,4.90
2021,01,11,02,19,4.90
2021,01,11,02,20,4.80
2021,01,11,02,21,5.70
2021,01,11,02,22,7.80
2021,01,11,02,23,8.90
2021,01,11,02,24,10.10
2021,01,11,02,25,10.90
2021,01,11,02,26,11.30
2021,01,11,02,27,10.00
2021,01,11,02,28,9.50
2021,01,11,02,29,9.00
2021,01,11,02,30,8.80
2021,01,11,02,31,8.10
2021,01,11,02,32,8.50
2021,01,11,02,33,8.70
2021,01,11,02,34,8.60
2021,01,11,02,35,8.70
2021,01,11,02,36,8.60
2021,01,11,02,37,10.30
2021,01,11,02,38,10.00
2021,01,11,02,39,10.50
2021,01,11,02,40,10.20
2021,01,11,02,41,9.40
2021,01,11,02,42,8.70
2021,01,11,02,43,7.90
2021,01,11,02,44,8.50
2021,01,11,02,45,8.80
2021,01,11,02,46,8.80
2021,01,11,02,47,9.10
2021,01,11,02,48,9.30
2021,01,11,02,49,8.10
2021,01,11,02,50,7.60
2021,01,11,02,51,7.60
2021,01,11,02,52,7.20
2021,01,11,02,53,7.30
2021,01,11,02,54,6.70
2021,01,11,02,55,6.40
2021,01,11,02,56,5.70
2021,01,11,02,57,6.00
2021,01,11,02,58,5.80
2021,01,11,02,59,5.90
2021,01,11,03,00,5.30
2021,01,11,03,01,6.40
2021,01,11,03,02,6.70
2021,01,11,03,03,6.20
2021,01,11,03,04,6.10
2021,01,11,03,05,5.50
2021,01,11,03,06,5.00
2021,01,11,03,07,4.80
2021,01,11,03,08,4.70
2021,01,11,03,09,4.90
2021,01,11,03,10,5.40
2021,01,11,03,11,5.40
2021,01,11,03,12,5.50
2021,01,11,03,13,3.70
2021,01,11,03,14,3.20
2021,01,11,03,15,2.40
2021,01,11,03,16,2.00
2021,01,11,03,17,2.20
2021,01,11,03,18,3.70
2021,01,11,03,19,4.00
2021,01,11,03,20,3.40
2021,01,11,03,21,3.70
2021,01,11,03,22,5.90
2021,01,11,03,23,6.00
2021,01,11,03,24,5.40
2021,01,11,03,25,6.30
2021,01,11,03,26,4.70
2021,01,11,03,27,3.20
2021,01,11,03,28,2.40
2021,01,11,03,29,1.70
2021,01,11,03,30,0.10
2021,01,11,03,31,0.00
2021,01,11,03,32,0.00
2021,01,11,03,33,0.00
2021,01,11,03,34,0.00
2021,01,11,03,35,0.10
2021,01,11,03,36,1.30
2021,01,11,03,37,0.50
2021,01,11,03,38,0.00
2021,01,11,03,39,1.60
2021,01,11,03,40,3.50
2021,01,11,03,41,6.00
2021,01,11,03,42,8.70
2021,01,11,03,43,8.70
2021,01,11,03,44,10.80
2021,01,11,03,45,12.50
2021,01,11,03,46,10.10
2021,01,11,03,47,9.00
2021,01,11,03,48,9.10
2021,01,11,03,49,10.30
2021,01,11,03,50,13.60
2021,01,11,03,51,14.30
2021,01,11,03,52,11.80
2021,01,11,03,53,12.30
2021,01,11,03,54,14.00
2021,01,11,03,55,14.50
2021,01,11,03,56,16.90
2021,01,11,03,57,19.30
2021,01,11,03,58,18.70
2021,01,11,03,59,18.50
2021,01,11,04,00,18.60
2021,01,11,04,01,16.20
2021,01,11,04,02,15.60
2021,01,11,04,03,15.40
2021,01,11,04,04,16.00
2021,01,11,04,05,17.60
2021,01,11,04,06,19.60
2021,01,11,04,07,21.70
2021,01,11,04,08,21.30
2021,01,11,04,09,20.00
2021,01,11,04,10,16.60
2021,01,11,04,11,13.80
2021,01,11,04,12,8.30
2021,01,11,04,13,8.20
2021,01,11,04,14,9.10
2021,01,11,04,15,11.40
2021,01,11,04,16,12.30
2021,01,11,04,17,12.40
2021,01,11,04,18,12.00
2021,01,11,04,19,12.70
2021,01,11,04,20,14.20
2021,01,11,04,21,13.50
2021,01,11,04,22,14.60
2021,01,11,04,23,14.90
2021,01,11,04,24,16.20
2021,01,11,04,25,16.90
2021,01,11,04,26,16.90
2021,01,11,04,27,15.50
2021,01,11,04,28,14.10
2021,01,11,04,29,13.30
2021,01,11,04,30,12.60
2021,01,11,04,31,12.90
2021,01,11,04,32,14.00
2021,01,11,04,33,13.80
2021,01,11,04,34,14.20
2021,01,11,04,35,14.90
2021,01,11,04,36,13.80
2021,01,11,04,37,15.20
2021,01,11,04,38,14.20
2021,01,11,04,39,13.70
2021,01,11,04,40,13.10
2021,01,11,04,41,11.80
2021,01,11,04,42,10.20
2021,01,11,04,43,10.70
2021,01,11,04,44,8.80
2021,01,11,04,45,6.50
2021,01,11,04,46,5.00
2021,01,11,04,47,2.80
2021,01,11,04,48,4.20
2021,01,11,04,49,3.70
2021,01,11,04,50,2.40
2021,01,11,04,51,3.90
2021,01,11,04,52,5.90
2021,01,11,04,53,2.20
2021,01,11,04,54,0.00
2021,01,11,04,55,0.00
2021,01,11,04,56,0.00
2021,01,11,04,57,0.00
2021,01,11,04,58,0.00
2021,01,11,04,59,0.00
2021,01,11,05,00,0.00
2021,01,11,05,01,0.00
2021,01,11,05,02,2.90
2021,01,11,05,03,4.40
2021,01,11,05,04,4.20
2021,01,11,05,05,3.20
2021,01,11,05,06,2.80
2021,01,11,05,07,3.90
2021,01,11,05,08,2.50
2021,01,11,05,09,4.00
2021,01,11,05,10,2.10
2021,01,11,05,11,2.80
2021,01,11,05,12,2.40
2021,01,11,05,13,2.20
2021,01,11,05,14,0.40
2021,01,11,05,15,0.20
2021,01,11,05,16,0.10
2021,01,11,05,17,0.00
2021,01,11,05,18,2.60
2021,01,11,05,19,3.70
2021,01,11,05,20,5.80
2021,01,11,05,21,6.80
2021,01,11,05,22,4.90
2021,01,11,05,23,6.50
2021,01,11,05,24,6.40
2021,01,11,05,25,6.00
2021,01,11,05,26,5.90
2021,01,11,05,27,7.10
2021,01,11,05,28,6.80
2021,01,11,05,29,7.70
2021,01,11,05,30,7.20
2021,01,11,05,31,6.40
2021,01,11,05,32,6.60
2021,01,11,05,33,8.10
2021,01,11,05,34,8.60
2021,01,11,05,35,8.00
2021,01,11,05,36,10.00
2021,01,11,05,37,8.80
2021,01,11,05,38,7.10
2021,01,11,05,39,6.90
2021,01,11,05,40,8.20
2021,01,11,05,41,9.60
2021,01,11,05,42,10.50
2021,01,11,05,43,10.40
2021,01,11,05,44,10.70
2021,01,11,05,45,12.50
2021,01,11,05,46,13.90
2021,01,11,05,47,13.30
2021,01,11,05,48,12.80
2021,01,11,05,49,11.20
2021,01,11,05,50,10.40
2021,01,11,05,51,10.90
2021,01,11,05,52,10.50
2021,01,11,05,53,12.50
2021,01,11,05,54,13.70
2021,01,11,05,55,14.40
2021,01,11,05,56,16.80
2021,01,11,05,57,18.60
2021,01,11,05,58,19.90
2021,01,11,05,59,19.20
2021,01,11,06,00,19.60
2021,01,11,06,01,19.70
2021,01,11,06,02,20.20
2021,01,11,06,03,19.50
2021,01,11,06,04,19.10
2021,01,11,06,05,16.20
2021,01,11,06,06,14.10
2021,01,11,06,07,13.60
2021,01,11,06,08,14.80
2021,01,11,06,09,16.30
2021,01,11,06,10,17.00
2021,01,11,06,11,18.70
2021,01,11,06,12,17.10
2021,01,11,06,13,15.50
2021,01,11,06,14,14.70
2021,01,11,06,15,13.80
2021,01,11,06,16,12.50
2021,01,11,06,17,12.00
2021,01,11,06,18,11.90
2021,01,11,06,19,13.50
2021,01,11,06,20,15.00
2021,01,11,06,21,15.20
2021,01,11,06,22,15.40
2021,01,11,06,23,17.40
2021,01,11,06,24,18.30
2021,01,11,06,25,17.60
2021,01,11,06,26,15.60
2021,01,11,06,27,14.00
2021,01,11,06,28,12.90
2021,01,11,06,29,12.50
2021,01,11,06,30,10.90
2021,01,11,06,31,10.60
2021,01,11,06,32,11.50
2021,01,11,06,33,12.30
2021,01,11,06,34,12.10
2021,01,11,06,35,11.60
2021,01,11,06,36,12.20
2021,01,11,06,37,14.20
2021,01,11,06,38,14.60
2021,01,11,06,39,15.60
2021,01,11,06,40,16.30
2021,01,11,06,41,15.90
2021,01,11,06,42,16.50
2021,01,11,06,43,15.80
2021,01,11,06,44,15.50
2021,01,11,06,45,15.30
2021,01,11,06,46,15.40
2021,01,11,06,47,15.20
2021,01,11,06,48,15.40
2021,01,11,06,49,15.00
2021,01,11,06,50,15.90
2021,01,11,06,51,14.60
2021,01,11,06,52,15.20
2021,01,11,06,53,15.00
2021,01,11,06,54,15.70
2021,01,11,06,55,14.80
2021,01,11,06,56,15.50
2021,01,11,06,57,15.40
2021,01,11,06,58,16.00
2021,01,11,06,59,16.90
2021,01,11,07,00,17.40
2021,01,11,07,01,18.00
2021,01,11,07,02,17.10
2021,01,11,07,03,17.70
2021,01,11,07,04,18.00
2021,01,11,07,05,19.10
2021,01,11,07,06,18.80
2021,01,11,07,07,17.80
2021,01,11,07,08,17.80
2021,01,11,07,09,18.60
2021,01,11,07,10,19.80
2021,01,11,07,11,19.50
2021,01,11,07,12,19.40
2021,01,11,07,13,21.30
2021,01,11,07,14,20.30
2021,01,11,07,15,22.10
2021,01,11,07,16,21.60
2021,01,11,07,17,19.00
2021,01,11,07,18,18.60
2021,01,11,07,19,19.80
2021,01,11,07,20,19.20
2021,01,11,07,21,16.30
2021,01,11,07,22,17.50
2021,01,11,07,23,15.60
2021,01,11,07,24,15.00
2021,01,11,07,25,14.50
2021,01,11,07,26,13.80
2021,01,11,07,27,13.00
2021,01,11,07,28,14.00
2021,01,11,07,29,12.00
2021,01,11,07,30,12.30
2021,01,11,07,31,13.30
2021,01,11,07,32,14.80
2021,01,11,07,33,16.50
2021,01,11,07,34,14.30
2021,01,11,07,35,14.30
2021,01,11,07,36,12.70
2021,01,11,07,37,14.60
2021,01,11,07,38,14.60
2021,01,11,07,39,14.40
2021,01,11,07,40,14.90
2021,01,11,07,41,14.30
2021,01,11,07,42,13.90
2021,01,11,07,43,14.30
2021,01,11,07,44,14.80
2021,01,11,07,45,13.50
2021,01,11,07,46,11.60
2021,01,11,07,47,11.00
2021,01,11,07,48,11.60
2021,01,11,07,49,10.90
2021,01,11,07,50,10.60
2021,01,11,07,51,9.80
2021,01,11,07,52,8.70
2021,01,11,07,53,7.70
2021,01,11,07,54,7.20
2021,01,11,07,55,7.40
2021,01,11,07,56,7.60
2021,01,11,07,57,4.20
2021,01,11,07,58,3.90
2021,01,11,07,59,2.70
2021,01,11,08,00,4.70
2021,01,11,08,01,3.50
2021,01,11,08,02,2.80
2021,01,11,08,03,2.60
2021,01,11,08,04,3.60
2021,01,11,08,05,3.90
2021,01,11,08,06,4.40
2021,01,11,08,07,4.40
2021,01,11,08,08,5.20
2021,01,11,08,09,5.60
2021,01,11,08,10,4.20
2021,01,11,08,11,5.80
2021,01,11,08,12,6.10
2021,01,11,08,13,7.30
2021,01,11,08,14,7.60
2021,01,11,08,15,8.30
2021,01,11,08,16,8.50
2021,01,11,08,17,8.90
2021,01,11,08,18,9.70
2021,01,11,08,19,9.50
2021,01,11,08,20,10.40
2021,01,11,08,21,11.60
2021,01,11,08,22,11.50
2021,01,11,08,23,11.30
2021,01,11,08,24,11.10
2021,01,11,08,25,11.20
2021,01,11,08,26,11.30
2021,01,11,08,27,11.20
2021,01,11,08,28,11.40
2021,01,11,08,29,11.90
2021,01,11,08,30,10.90
2021,01,11,08,31,10.90
2021,01,11,08,32,11.10
2021,01,11,08,33,13.00
2021,01,11,08,34,12.60
2021,01,11,08,35,13.30
2021,01,11,08,36,13.70
2021,01,11,08,37,13.50
2021,01,11,08,38,15.60
2021,01,11,08,39,15.30
2021,01,11,08,40,15.60
2021,01,11,08,41,15.20
2021,01,11,08,42,16.30
2021,01,11,08,43,16.30
2021,01,11,08,44,16.10
2021,01,11,08,45,15.40
2021,01,11,08,46,15.10
2021,01,11,08,47,16.40
2021,01,11,08,48,17.30
2021,01,11,08,49,20.20
2021,01,11,08,50,19.30
2021,01,11,08,51,18.60
2021,01,11,08,52,18.00
2021,01,11,08,53,18.50
2021,01,11,08,54,18.70
2021,01,11,08,55,18.50
2021,01,11,08,56,18.10
2021,01,11,08,57,19.50
2021,01,11,08,58,18.20
2021,01,11,08,59,17.70
2021,01,11,09,00,18.90
2021,01,11,09,01,23.00
2021,01,11,09,02,26.50
2021,01,11,09,03,28.70
2021,01,11,09,04,31.60
2021,01,11,09,05,30.30
2021,01,11,09,06,28.50
2021,01,11,09,07,26.70
2021,01,11,09,08,28.40
2021,01,11,09,09,32.30
2021,01,11,09,10,35.60
2021,01,11,09,11,35.60
2021,01,11,09,12,34.60
2021,01,11,09,13,33.00
2021,01,11,09,14,32.50
2021,01,11,09,15,33.30
2021,01,11,09,16,36.20
2021,01,11,09,17,43.80
2021,01,11,09,18,49.50
2021,01,11,09,19,50.10
2021,01,11,09,20,49.20
2021,01,11,09,21,50.10
2021,01,11,09,22,49.80
2021,01,11,09,23,48.30
2021,01,11,09,24,44.70
2021,01,11,09,25,40.50
2021,01,11,09,26,36.50
2021,01,11,09,27,33.70
2021,01,11,09,28,31.00
2021,01,11,09,29,30.20
2021,01,11,09,30,29.70
2021,01,11,09,31,29.60
2021,01,11,09,32,32.60
2021,01,11,09,33,35.90
2021,01,11,09,34,35.40
2021,01,11,09,35,36.90
2021,01,11,09,36,44.30
2021,01,11,09,37,45.10
2021,01,11,09,38,44.40
2021,01,11,09,39,41.50
2021,01,11,09,40,40.30
2021,01,11,09,41,42.30
2021,01,11,09,42,45.90
2021,01,11,09,43,44.70
2021,01,11,09,44,44.70
2021,01,11,09,45,44.10
2021,01,11,09,46,41.30
2021,01,11,09,47,44.00
2021,01,11,09,48,44.00
2021,01,11,09,49,44.30
2021,01,11,09,50,45.50
2021,01,11,09,51,46.90
2021,01,11,09,52,47.10
2021,01,11,09,53,50.50
2021,01,11,09,54,49.50
2021,01,11,09,55,48.10
2021,01,11,09,56,46.50
2021,01,11,09,57,44.20
2021,01,11,09,58,43.20
2021,01,11,09,59,42.80
2021,01,11,10,00,44.10
2021,01,11,10,01,46.40
2021,01,11,10,02,45.80
2021,01,11,10,03,43.20
2021,01,11,10,04,47.30
2021,01,11,10,05,45.00
2021,01,11,10,06,46.30
2021,01,11,10,07,46.00
2021,01,11,10,08,45.80
2021,01,11,10,09,45.60
2021,01,11,10,10,46.70
2021,01,11,10,11,49.70
2021,01,11,10,12,50.90
2021,01,11,10,13,49.30
2021,01,11,10,14,54.10
2021,01,11,10,15,50.70
2021,01,11,10,16,49.90
2021,01,11,10,17,52.60
2021,01,11,10,18,49.20
2021,01,11,10,19,48.90
2021,01,11,10,20,48.10
2021,01,11,10,21,50.20
2021,01,11,10,22,54.10
2021,01,11,10,23,50.80
2021,01,11,10,24,49.90
2021,01,11,10,25,52.10
2021,01,11,10,26,47.60
2021,01,11,10,27,49.90
2021,01,11,10,28,52.00
2021,01,11,10,29,51.20
2021,01,11,10,30,47.70
2021,01,11,10,31,44.60
2021,01,11,10,32,50.80
2021,01,11,10,33,50.80
2021,01,11,10,34,49.40
2021,01,11,10,35,50.40
2021,01,11,10,36,48.30
2021,01,11,10,37,48.40
2021,01,11,10,38,53.50
2021,01,11,10,39,52.60
2021,01,11,10,40,51.70
2021,01,11,10,41,50.10
2021,01,11,10,42,54.00
2021,01,11,10,43,53.00
2021,01,11,10,44,52.20
2021,01,11,10,45,57.20
2021,01,11,10,46,58.80
2021,01,11,10,47,58.80
2021,01,11,10,48,55.40
2021,01,11,10,49,51.40
2021,01,11,10,50,51.50
2021,01,11,10,51,50.00
2021,01,11,10,52,49.90
2021,01,11,10,53,44.80
2021,01,11,10,54,42.20
2021,01,11,10,55,43.50
2021,01,11,10,56,42.20
2021,01,11,10,57,45.00
2021,01,11,10,58,42.50
2021,01,11,10,59,45.40
2021,01,11,11,00,47.20
2021,01,11,11,01,45.60
2021,01,11,11,02,44.20
2021,01,11,11,03,43.90
2021,01,11,11,04,44.40
2021,01,11,11,05,44.40
2021,01,11,11,06,46.30
2021,01,11,11,07,47.10
2021,01,11,11,08,47.80
2021,01,11,11,09,48.30
2021,01,11,11,10,45.80
2021,01,11,11,11,47.60
2021,01,11,11,12,46.90
2021,01,11,11,13,46.90
2021,01,11,11,14,50.60
2021,01,11,11,15,47.50
2021,01,11,11,16,50.00
2021,01,11,11,17,49.80
2021,01,11,11,18,48.30
2021,01,11,11,19,49.40
2021,01,11,11,20,49.10
2021,01,11,11,21,45.10
2021,01,11,11,22,44.50
2021,01,11,11,23,46.70
2021,01,11,11,24,47.00
2021,01,11,11,25,45.10
2021,01,11,11,26,45.70
2021,01,11,11,27,48.70
2021,01,11,11,28,45.40
2021,01,11,11,29,42.90
2021,01,11,11,30,47.30
2021,01,11,11,31,46.10
2021,01,11,11,32,44.30
2021,01,11,11,33,47.00
2021,01,11,11,34,49.00
2021,01,11,11,35,51.30
2021,01,11,11,36,50.10
2021,01,11,11,37,50.90
2021,01,11,11,38,48.40
2021,01,11,11,39,48.40
2021,01,11,11,40,45.70
2021,01,11,11,41,46.10
2021,01,11,11,42,44.10
2021,01,11,11,43,43.00
2021,01,11,11,44,48.70
2021,01,11,11,45,45.40
2021,01,11,11,46,44.70
2021,01,11,11,47,46.10
2021,01,11,11,48,42.30
2021,01,11,11,49,42.10
2021,01,11,11,50,46.60
2021,01,11,11,51,42.30
2021,01,11,11,52,43.20
2021,01,11,11,53,40.50
2021,01,11,11,54,42.00
2021,01,11,11,55,40.60
2021,01,11,11,56,39.20
2021,01,11,11,57,42.70
2021,01,11,11,58,41.80
2021,01,11,11,59,39.70
2021,01,11,12,00,38.90
2021,01,11,12,01,38.40
2021,01,11,12,02,38.30
2021,01,11,12,03,36.70
2021,01,11,12,04,37.30
2021,01,11,12,05,35.00
2021,01,11,12,06,33.10
2021,01,11,12,07,31.70
2021,01,11,12,08,30.90
2021,01,11,12,09,23.90
2021,01,11,12,10,23.10
2021,01,11,12,11,25.10
2021,01,11,12,12,28.60
2021,01,11,12,13,32.20
2021,01,11,12,14,31.90
2021,01,11,12,15,34.10
2021,01,11,12,16,36.40
2021,01,11,12,17,38.10
2021,01,11,12,18,36.50
2021,01,11,12,19,35.60
2021,01,11,12,20,37.20
2021,01,11,12,21,38.50
2021,01,11,12,22,40.20
2021,01,11,12,23,44.30
2021,01,11,12,24,39.70
2021,01,11,12,25,43.50
2021,01,11,12,26,40.70
2021,01,11,12,27,44.50
2021,01,11,12,28,43.70
2021,01,11,12,29,42.50
2021,01,11,12,30,41.50
2021,01,11,12,31,40.50
2021,01,11,12,32,41.00
2021,01,11,12,33,40.50
2021,01,11,12,34,42.90
2021,01,11,12,35,42.20
2021,01,11,12,36,41.50
2021,01,11,12,37,39.50
2021,01,11,12,38,41.70
2021,01,11,12,39,38.80
2021,01,11,12,40,39.70
2021,01,11,12,41,44.50
2021,01,11,12,42,44.60
2021,01,11,12,43,43.40
2021,01,11,12,44,43.80
2021,01,11,12,45,51.30
2021,01,11,12,46,52.60
2021,01,11,12,47,48.70
2021,01,11,12,48,47.60
2021,01,11,12,49,47.10
2021,01,11,12,50,47.50
2021,01,11,12,51,48.00
2021,01,11,12,52,52.30
2021,01,11,12,53,43.70
2021,01,11,12,54,44.70
2021,01,11,12,55,53.30
2021,01,11,12,56,51.00
2021,01,11,12,57,51.30
2021,01,11,12,58,52.20
2021,01,11,12,59,51.00
2021,01,11,13,00,50.30
2021,01,11,13,01,51.00
2021,01,11,13,02,51.10
2021,01,11,13,03,54.10
2021,01,11,13,04,58.20
2021,01,11,13,05,55.40
2021,01,11,13,06,53.40
2021,01,11,13,07,53.00
2021,01,11,13,08,53.90
2021,01,11,13,09,54.20
2021,01,11,13,10,53.40
2021,01,11,13,11,56.10
2021,01,11,13,12,54.90
2021,01,11,13,13,55.50
2021,01,11,13,14,52.10
2021,01,11,13,15,55.30
2021,01,11,13,16,53.90
2021,01,11,13,17,53.80
2021,01,11,13,18,52.50
2021,01,11,13,19,54.50
2021,01,11,13,20,51.50
2021,01,11,13,21,53.80
2021,01,11,13,22,53.80
2021,01,11,13,23,54.50
2021,01,11,13,24,53.90
2021,01,11,13,25,50.70
2021,01,11,13,26,45.00
2021,01,11,13,27,42.60
2021,01,11,13,28,50.60
2021,01,11,13,29,48.70
2021,01,11,13,30,49.00
2021,01,11,13,31,48.60
2021,01,11,13,32,44.10
2021,01,11,13,33,45.30
2021,01,11,13,34,45.90
2021,01,11,13,35,47.40
2021,01,11,13,36,41.60
2021,01,11,13,37,47.50
2021,01,11,13,38,47.20
2021,01,11,13,39,49.20
2021,01,11,13,40,50.40
2021,01,11,13,41,49.10
2021,01,11,13,42,46.70
2021,01,11,13,43,47.70
2021,01,11,13,44,43.00
2021,01,11,13,45,48.50
2021,01,11,13,46,46.80
2021,01,11,13,47,43.90
2021,01,11,13,48,50.40
2021,01,11,13,49,46.50
2021,01,11,13,50,41.90
2021,01,11,13,51,42.40
2021,01,11,13,52,44.10
2021,01,11,13,53,41.70
2021,01,11,13,54,44.10
2021,01,11,13,55,43.40
2021,01,11,13,56,45.90
2021,01,11,13,57,46.20
2021,01,11,13,58,48.20
2021,01,11,13,59,46.90
2021,01,11,14,00,44.20
2021,01,11,14,01,46.20
2021,01,11,14,02,47.90
2021,01,11,14,03,51.10
2021,01,11,14,04,47.60
2021,01,11,14,05,50.00
2021,01,11,14,06,49.40
2021,01,11,14,07,46.60
2021,01,11,14,08,46.70
2021,01,11,14,09,45.40
2021,01,11,14,10,52.70
2021,01,11,14,11,44.70
2021,01,11,14,12,44.10
2021,01,11,14,13,55.50
2021,01,11,14,14,47.80
2021,01,11,14,15,39.50
2021,01,11,14,16,50.70
2021,01,11,14,17,48.40
2021,01,11,14,18,42.80
2021,01,11,14,19,44.00
2021,01,11,14,20,46.90
2021,01,11,14,21,49.40
2021,01,11,14,22,48.20
2021,01,11,14,23,52.80
2021,01,11,14,24,51.90
2021,01,11,14,25,51.70
2021,01,11,14,26,54.90
2021,01,11,14,27,49.20
2021,01,11,14,28,53.40
2021,01,11,14,29,56.30
2021,01,11,14,30,52.00
2021,01,11,14,31,49.80
2021,01,11,14,32,52.80
2021,01,11,14,33,52.70
2021,01,11,14,34,51.90
2021,01,11,14,35,55.90
2021,01,11,14,36,55.30
2021,01,11,14,37,56.40
2021,01,11,14,38,54.30
2021,01,11,14,39,54.70
2021,01,11,14,40,52.10
2021,01,11,14,41,54.60
2021,01,11,14,42,55.40
2021,01,11,14,43,52.00
2021,01,11,14,44,50.70
2021,01,11,14,45,54.90
2021,01,11,14,46,54.70
2021,01,11,14,47,54.70
2021,01,11,14,48,54.70
2021,01,11,14,49,54.00
2021,01,11,14,50,50.50
2021,01,11,14,51,50.60
2021,01,11,14,52,47.40
2021,01,11,14,53,45.40
2021,01,11,14,54,52.90
2021,01,11,14,55,48.90
2021,01,11,14,56,48.80
2021,01,11,14,57,53.10
2021,01,11,14,58,56.90
2021,01,11,14,59,49.10
2021,01,11,15,00,51.40
2021,01,11,15,01,54.90
2021,01,11,15,02,54.30
2021,01,11,15,03,53.30
2021,01,11,15,04,52.30
2021,01,11,15,05,54.70
2021,01,11,15,06,51.80
2021,01,11,15,07,52.10
2021,01,11,15,08,51.00
2021,01,11,15,09,53.90
2021,01,11,15,10,52.10
2021,01,11,15,11,49.40
2021,01,11,15,12,51.10
2021,01,11,15,13,53.40
2021,01,11,15,14,48.40
2021,01,11,15,15,48.90
2021,01,11,15,16,52.10
2021,01,11,15,17,49.40
2021,01,11,15,18,50.90
2021,01,11,15,19,49.90
2021,01,11,15,20,52.60
2021,01,11,15,21,50.70
2021,01,11,15,22,47.40
2021,01,11,15,23,46.40
2021,01,11,15,24,45.80
2021,01,11,15,25,45.10
2021,01,11,15,26,45.10
2021,01,11,15,27,45.10
2021,01,11,15,28,45.10
2021,01,11,15,29,47.10
2021,01,11,15,30,47.60
2021,01,11,15,31,47.40
2021,01,11,15,32,49.20
2021,01,11,15,33,50.30
2021,01,11,15,34,50.60
2021,01,11,15,35,50.60
2021,01,11,15,36,47.00
2021,01,11,15,37,46.70
2021,01,11,15,38,46.00
2021,01,11,15,39,45.10
2021,01,11,15,40,41.70
2021,01,11,15,41,41.40
2021,01,11,15,42,36.90
2021,01,11,15,43,36.80
2021,01,11,15,44,35.90
2021,01,11,15,45,39.20
2021,01,11,15,46,37.90
2021,01,11,15,47,37.20
2021,01,11,15,48,36.40
2021,01,11,15,49,35.60
2021,01,11,15,50,34.70
2021,01,11,15,51,32.90
2021,01,11,15,52,32.40
2021,01,11,15,53,32.20
2021,01,11,15,54,31.20
2021,01,11,15,55,32.90
2021,01,11,15,56,30.90
2021,01,11,15,57,32.90
2021,01,11,15,58,33.10
2021,01,11,15,59,31.40
2021,01,11,16,00,30.20
2021,01,11,16,01,29.00
2021,01,11,16,02,25.70
2021,01,11,16,03,25.70
2021,01,11,16,04,25.70
2021,01,11,16,05,26.00
2021,01,11,16,06,29.50
2021,01,11,16,07,31.80
2021,01,11,16,08,33.40
2021,01,11,16,09,26.70
2021,01,11,16,10,27.40
2021,01,11,16,11,31.40
2021,01,11,16,12,38.10
2021,01,11,16,13,45.70
2021,01,11,16,14,48.00
2021,01,11,16,15,48.30
2021,01,11,16,16,52.70
2021,01,11,16,17,48.10
2021,01,11,16,18,44.70
2021,01,11,16,19,44.90
2021,01,11,16,20,47.10
2021,01,11,16,21,46.40
2021,01,11,16,22,46.10
2021,01,11,16,23,46.10
2021,01,11,16,24,43.70
2021,01,11,16,25,43.70
2021,01,11,16,26,45.20
2021,01,11,16,27,41.90
2021,01,11,16,28,42.90
2021,01,11,16,29,39.80
2021,01,11,16,30,35.80
2021,01,11,16,31,42.40
2021,01,11,16,32,42.80
2021,01,11,16,33,46.80
2021,01,11,16,34,43.30
2021,01,11,16,35,45.20
2021,01,11,16,36,49.70
2021,01,11,16,37,46.40
2021,01,11,16,38,45.10
2021,01,11,16,39,47.40
2021,01,11,16,40,43.20
2021,01,11,16,41,44.80
2021,01,11,16,42,41.50
2021,01,11,16,43,48.20
2021,01,11,16,44,46.10
2021,01,11,16,45,48.20
2021,01,11,16,46,45.90
2021,01,11,16,47,47.10
2021,01,11,16,48,46.30
2021,01,11,16,49,49.00
2021,01,11,16,50,52.20
2021,01,11,16,51,54.00
2021,01,11,16,52,56.50
2021,01,11,16,53,56.50
2021,01,11,16,54,57.40
2021,01,11,16,55,55.80
2021,01,11,16,56,51.60
2021,01,11,16,57,51.90
2021,01,11,16,58,47.70
2021,01,11,16,59,47.50
2021,01,11,17,00,46.00
2021,01,11,17,01,45.80
2021,01,11,17,02,48.30
2021,01,11,17,03,46.20
2021,01,11,17,04,45.40
2021,01,11,17,05,45.20
2021,01,11,17,06,48.30
2021,01,11,17,07,44.70
2021,01,11,17,08,42.00
2021,01,11,17,09,44.30
2021,01,11,17,10,45.40
2021,01,11,17,11,50.00
2021,01,11,17,12,51.70
2021,01,11,17,13,51.70
2021,01,11,17,14,50.30
2021,01,11,17,15,49.00
2021,01,11,17,16,46.30
2021,01,11,17,17,42.20
2021,01,11,17,18,47.60
2021,01,11,17,19,49.60
2021,01,11,17,20,51.30
2021,01,11,17,21,52.20
2021,01,11,17,22,50.80
2021,01,11,17,23,51.40
2021,01,11,17,24,52.60
2021,01,11,17,25,57.20
2021,01,11,17,26,56.60
2021,01,11,17,27,62.80
2021,01,11,17,28,65.10
2021,01,11,17,29,66.50